Home   Weather   Kalamaria   Past weeks

Flag for Greece Past Weather in Kalamaria, Greece — Yesterday and Last 2 Weeks

Now
39 °F

Clear.


Feels Like: 37 °F
Forecast: 35 / 50 °F
Wind: 3 mph from East

Location: Thessaloniki Airport

Current Time: Dec 2, 2016 at 10:08:48 pm

Latest Report: Dec 2, 2016 at 9:20 pm


Visibility: 10 mi

Pressure: 29.92 "Hg

Humidity: 81%

Dew Point: 34 °F

Location of KalamariaLocation

Past Weather in Kalamaria — Graph

°F

Kalamaria Temperature Yesterday

Maximum temperature yesterday: 52 °F (at 3:20 pm)
Minimum temperature yesterday: 32 °F (at 1:50 am)
Average temperature yesterday: 43 °F

High & Low Weather Summary for the Past Weeks

 TemperatureHumidityPressure
High61 °F (Nov 20, 3:50 pm)100% (Nov 19, 2:20 am)30.36 "Hg (Nov 19, 2:20 am)
Low32 °F (Dec 1, 1:50 am)32% (Dec 1, 3:20 pm)29.77 "Hg (Nov 28, 2:20 pm)
Average48 °F76%30.16 "Hg
* Reported Nov 17 8:20 pm — Dec 2 8:50 pm, Kalamaria, Weather by CustomWeather, © 2016

Note: Actual official high and low records may vary slightly from our data, if they occured in-between our weather recording intervals... More about our weather records

Advertising

Kalamaria Weather History for the Previous 24 Hours

Scroll right to see more
 ConditionsComfort  
Time TempWeatherWind HumidityBarometerVisibility
8:50 pm
Fri, Dec 2
41 °FClear.5 mph76%29.89 "Hg10 mi
8:20 pm41 °FClear.3 mph81%29.89 "Hg10 mi
7:50 pm41 °FClear.3 mph81%29.86 "Hg10 mi
7:20 pm43 °FClear.5 mph76%29.86 "Hg10 mi
6:50 pm43 °FClear.5 mph76%29.83 "Hg10 mi
6:20 pm45 °FClear.3 mph66%29.83 "Hg10 mi
5:50 pm48 °FClear.5 mph58%29.80 "Hg10 mi
5:20 pm50 °FClear.3 mph54%29.80 "Hg10 mi
4:50 pm54 °FSunny.2 mph47%29.80 "Hg10 mi
4:20 pm55 °FSunny.2 mph41%29.80 "Hg10 mi
3:50 pm55 °FSunny.2 mph41%29.80 "Hg10 mi
3:20 pm55 °FSunny.5 mph44%29.77 "Hg10 mi
2:50 pm55 °FPassing clouds.6 mph41%29.77 "HgN/A
2:20 pm55 °FPassing clouds.7 mph41%29.80 "HgN/A
1:50 pm55 °FPassing clouds.8 mph47%29.80 "HgN/A
1:20 pm55 °FPassing clouds.6 mph47%29.80 "HgN/A
12:50 pm54 °FPassing clouds.7 mph51%29.83 "HgN/A
12:20 pm54 °FSunny.8 mph51%29.83 "Hg10 mi
11:50 am54 °FSunny.6 mph51%29.86 "Hg10 mi
11:20 am55 °FPassing clouds.5 mph41%29.86 "HgN/A
10:50 am52 °FPassing clouds.8 mph44%29.89 "HgN/A
10:20 am50 °FPassing clouds.6 mph43%29.89 "HgN/A
9:50 am45 °FPassing clouds.6 mph57%29.89 "HgN/A
9:20 am43 °FBroken clouds.7 mph57%29.89 "HgN/A
8:50 am39 °FPassing clouds.8 mph65%29.92 "HgN/A
8:20 am36 °FPassing clouds.7 mph75%29.92 "HgN/A
7:50 am34 °FPassing clouds.7 mph81%29.92 "HgN/A
7:20 am36 °FPassing clouds.8 mph75%29.92 "HgN/A
6:50 am34 °FPassing clouds.6 mph81%29.95 "HgN/A
6:20 am36 °FPassing clouds.6 mph75%29.95 "HgN/A
5:50 am34 °FPassing clouds.6 mph75%29.95 "HgN/A
5:20 am34 °FPassing clouds.7 mph81%29.95 "HgN/A
4:50 am34 °FPassing clouds.5 mph75%29.98 "HgN/A
4:20 am36 °FPassing clouds.3 mph65%29.98 "HgN/A
3:50 am39 °FPassing clouds.3 mph61%29.98 "HgN/A
3:20 am43 °FPassing clouds.5 mph53%30.01 "HgN/A
2:50 am45 °FPassing clouds.9 mph49%30.01 "HgN/A
2:20 am46 °FPassing clouds.12 mph50%30.01 "HgN/A
1:50 am46 °FPassing clouds.15 mph46%30.01 "HgN/A
1:20 am46 °FPassing clouds.13 mph46%30.04 "HgN/A
12:50 am46 °FPassing clouds.14 mph46%30.04 "HgN/A
12:20 am46 °FPassing clouds.14 mph50%30.04 "HgN/A
11:50 pm
Thu, Dec 1
46 °FPassing clouds.15 mph53%30.04 "HgN/A
11:20 pm46 °FPassing clouds.10 mph46%30.04 "HgN/A
10:50 pm48 °FPassing clouds.12 mph43%30.04 "HgN/A
10:20 pm48 °FPassing clouds.7 mph40%30.07 "HgN/A
Weather by CustomWeather, © 2016

See weather overviewHow to use our weather pages